sat.trackr.live / text

‹ back to catalog

STARLINK-34835

NORAD 65336 · 2025-189P

PAYLOAD ACTIVE UNKNOWN

§ Identity

Operator
Country
US
Launch date
2025-08-27
Launch site
AFETR
Launch vehicle
Mass (kg)
RCS (m²)

Purposes: comms

External: N2YO · Heavens-Above · Gunter

§ Orbital elements

Epoch: 2026-05-25T04:24:37.531872Z

Period
94.10 min
Inclination
53.1596°
Eccentricity
0.0001387
Mean motion
15.30207595 rev/d
Perigee alt
474.2 km
Apogee alt
476.1 km
Semi-major
6,853.3 km
B*
5.4746e-4
RAAN
211.7714°
Arg perigee
94.3784°
Mean anomaly
265.7376°
Rev number
4,281

§ Raw data

STARLINK-348351 65336U 25189P   26145.18376773  .00015894  00000+0  54746-3 0  99932 65336  53.1596 211.7714 0001387  94.3784 265.7376 15.30207595 42819

JSON: /api/v1/satellites/65336 · /tle

For live sub-satellite position, see the globe view (requires WebGL).

§ Visibility from observer

Set your observer location to see the next 7 days of passes ≥ 10°. The values pass through the URL so the page stays shareable.

No JS? Fill the form by hand. The geolocation button needs JavaScript.